GW3437 Weather Reports


Display with metric or nautical units.
time (UTC)temp
F
wind
direction
speed
MPH
gust
MPH
rain 1hr
in
rain 24hr
in
rain mn
in
humidity
%
barometer
mb
20260903125044 78 122 3.0 4.0 0.00 0.00 0.00 77 1015.8
20260903124539 77 201 2.0 4.0 0.00 0.00 0.00 77 1016.0
20260903124038 77 175 3.0 4.0 0.00 0.00 0.00 77 1016.0
20260903123538 77 122 5.0 7.0 0.00 0.00 0.00 77 1015.9
20260903123036 77 142 0.0 9.0 0.00 0.00 0.00 77 1015.8
20260903122531 77 165 1.0 3.0 0.00 0.00 0.00 77 1015.4
20260903122031 77 131 1.0 3.0 0.00 0.00 0.00 77 1015.6
20260903121525 77 187 2.0 3.0 0.00 0.00 0.00 77 1015.5
20260903121022 77 255 2.0 2.0 0.00 0.00 0.00 77 1015.3
20260903120520 77 125 2.0 2.0 0.00 0.00 0.00 77 1015.4
20260903120015 77 198 5.0 7.0 0.00 0.00 0.00 77 1015.6
20260903115513 77 150 1.0 4.0 0.00 0.00 0.00 76 1015.3
20260903115008 77 202 3.0 7.0 0.00 0.00 0.00 76 1015.4
20260903114503 77 199 5.0 7.0 0.00 0.00 0.00 76 1015.4
20260903113959 78 202 1.0 3.0 0.00 0.00 0.00 75 1015.3
20260903113454 78 209 1.0 4.0 0.00 0.00 0.00 75 1015.2
20260903112949 78 162 0.0 6.0 0.00 0.00 0.00 75 1015.1
20260903112445 78 170 5.0 6.0 0.00 0.00 0.00 75 1015.2
20260903111944 78 165 1.0 2.0 0.00 0.00 0.00 75 1015.0
20260903111439 78 161 4.0 6.0 0.00 0.00 0.00 75 1015.1
20260903110935 78 192 2.0 6.0 0.00 0.00 0.00 75 1015.2
20260903110431 78 219 1.0 4.0 0.00 0.00 0.00 74 1014.8
20260903105925 78 198 3.0 6.0 0.00 0.00 0.00 74 1015.0
20260903105421 78 129 0.0 9.0 0.00 0.00 0.00 73 1015.2
20260903104920 79 174 3.0 6.0 0.00 0.00 0.00 73 1015.1
20260903104414 79 189 2.0 6.0 0.00 0.00 0.00 73 1015.0
20260903103911 79 207 2.0 4.0 0.00 0.00 0.00 72 1015.1
20260903103407 79 158 4.0 7.0 0.00 0.00 0.00 72 1015.2
20260903102902 79 192 6.0 7.0 0.00 0.00 0.00 72 1014.9
20260903102357 79 154 2.0 3.0 0.00 0.00 0.00 72 1014.8
20260903101856 79 56 1.0 3.0 0.00 0.00 0.00 72 1014.8
20260903101346 79 200 4.0 8.0 0.00 0.00 0.00 71 1014.9
20260903100841 79 238 2.0 3.0 0.00 0.00 0.00 71 1014.9
20260903100336 80 74 1.0 4.0 0.00 0.00 0.00 71 1015.0
20260903095832 80 213 2.0 3.0 0.00 0.00 0.00 71 1015.0
20260903095327 80 127 0.0 2.0 0.00 0.00 0.00 70 1014.8
20260903094822 80 123 0.0 4.0 0.00 0.00 0.00 70 1014.7
20260903094317 80 172 2.0 2.0 0.00 0.00 0.00 70 1014.9
20260903093813 80 132 1.0 1.0 0.00 0.00 0.00 70 1014.8
20260903093307 80 181 2.0 3.0 0.00 0.00 0.00 69 1014.8
20260903092802 80 280 3.0 4.0 0.00 0.00 0.00 69 1015.0
20260903092257 80 86 0.0 2.0 0.00 0.00 0.00 69 1014.9
20260903091755 81 176 2.0 6.0 0.00 0.00 0.00 68 1015.0
20260903091244 81 202 2.0 6.0 0.00 0.00 0.00 68 1014.9
20260903090740 81 207 1.0 3.0 0.00 0.00 0.00 68 1014.8
20260903090238 81 216 2.0 7.0 0.00 0.00 0.00 67 1015.0
20260903085738 81 143 0.0 2.0 0.00 0.00 0.00 67 1015.1
20260903085233 81 206 2.0 10.0 0.00 0.00 0.00 67 1014.8
20260903084730 81 194 2.0 3.0 0.00 0.00 0.00 67 1015.0
20260903084225 81 140 2.0 8.0 0.00 0.00 0.00 66 1014.9
20260903083721 82 164 3.0 4.0 0.00 0.00 0.00 66 1014.8
20260903083215 82 92 1.0 2.0 0.00 0.00 0.00 66 1015.0
20260903082709 82 175 2.0 4.0 0.00 0.00 0.00 66 1015.1
20260903082205 82 225 2.0 3.0 0.00 0.00 0.00 65 1015.0
20260903081705 82 163 4.0 6.0 0.00 0.00 0.00 65 1015.2
20260903081201 82 146 0.0 3.0 0.00 0.00 0.00 65 1015.1
20260903080657 82 261 1.0 2.0 0.00 0.00 0.00 64 1015.0
20260903080154 82 162 1.0 4.0 0.00 0.00 0.00 64 1014.9
20260903075653 83 156 2.0 7.0 0.00 0.00 0.00 63 1014.8
20260903075148 83 188 2.0 7.0 0.00 0.00 0.00 63 1014.9
20260903074647 83 207 2.0 4.0 0.00 0.00 0.00 63 1014.9
20260903074143 83 180 5.0 9.0 0.00 0.00 0.00 62 1015.0
20260903073638 83 196 5.0 7.0 0.00 0.00 0.00 62 1015.0
20260903073133 84 229 2.0 3.0 0.00 0.00 0.00 62 1015.0
20260903072629 84 349 1.0 4.0 0.00 0.00 0.00 61 1015.1
20260903072125 84 205 3.0 7.0 0.00 0.00 0.00 61 1015.0
20260903071622 84 168 2.0 2.0 0.00 0.00 0.00 61 1014.9
20260903071117 84 204 3.0 4.0 0.00 0.00 0.00 61 1014.9
20260903070611 84 62 1.0 6.0 0.00 0.00 0.00 61 1014.9
20260903070107 84 154 1.0 4.0 0.00 0.00 0.00 60 1015.1
20260903065606 85 353 2.0 6.0 0.00 0.00 0.00 60 1014.8
20260903065101 85 176 4.0 11.0 0.00 0.00 0.00 59 1014.8
20260903064601 85 148 2.0 11.0 0.00 0.00 0.00 59 1014.9
20260903064056 85 178 4.0 6.0 0.00 0.00 0.00 58 1014.9
20260903063551 85 112 3.0 10.0 0.00 0.00 0.00 58 1015.0
20260903063046 85 252 2.0 9.0 0.00 0.00 0.00 57 1014.9
20260903062542 86 195 6.0 11.0 0.00 0.00 0.00 57 1014.9
20260903062037 86 160 1.0 3.0 0.00 0.00 0.00 56 1014.9
20260903061532 86 134 2.0 13.0 0.00 0.00 0.00 56 1014.9
20260903061032 86 166 1.0 3.0 0.00 0.00 0.00 56 1014.9
20260903060532 86 178 2.0 7.0 0.00 0.00 0.00 56 1014.9
20260903060027 86 218 2.0 4.0 0.00 0.00 0.00 56 1014.9
20260903055524 86 196 2.0 4.0 0.00 0.00 0.00 55 1014.8
20260903055023 87 209 4.0 8.0 0.00 0.00 0.00 55 1014.7
20260903054519 87 212 5.0 9.0 0.00 0.00 0.00 55 1014.8
20260903054015 87 170 1.0 13.0 0.00 0.00 0.00 55 1014.7
20260903053514 87 208 2.0 9.0 0.00 0.00 0.00 55 1014.8
20260903053011 87 221 2.0 4.0 0.00 0.00 0.00 54 1014.8
20260903052506 87 176 7.0 15.0 0.00 0.00 0.00 53 1014.9
20260903052001 87 201 4.0 9.0 0.00 0.00 0.00 53 1014.6
20260903051456 87 249 2.0 4.0 0.00 0.00 0.00 52 1014.8
20260903050952 87 197 4.0 7.0 0.00 0.00 0.00 52 1014.7
20260903050451 87 185 2.0 4.0 0.00 0.00 0.00 51 1014.8
20260903045946 88 129 0.0 3.0 0.00 0.00 0.00 51 1014.6
20260903045441 88 172 2.0 4.0 0.00 0.00 0.00 50 1014.3
20260903044938 88 208 4.0 7.0 0.00 0.00 0.00 50 1014.7
20260903044433 88 200 2.0 4.0 0.00 0.00 0.00 50 1014.4
20260903043929 88 161 1.0 4.0 0.00 0.00 0.00 49 1014.4
20260903043425 88 195 1.0 4.0 0.00 0.00 0.00 49 1014.7
20260903042923 88 174 0.0 1.0 0.00 0.00 0.00 49 1014.6
20260903042419 89 166 1.0 7.0 0.00 0.00 0.00 49 1014.6
20260903041914 89 190 0.0 4.0 0.00 0.00 0.00 48 1014.7
20260903041410 89 213 1.0 4.0 0.00 0.00 0.00 48 1014.6
20260903040906 89 175 3.0 9.0 0.00 0.00 0.00 47 1014.6
20260903040405 89 177 2.0 7.0 0.00 0.00 0.00 47 1014.7
20260903035901 89 68 1.0 7.0 0.00 0.00 0.00 47 1014.4
20260903035356 89 173 1.0 4.0 0.00 0.00 0.00 47 1014.4
20260903034851 90 168 1.0 6.0 0.00 0.00 0.00 46 1014.8
20260903034346 90 203 5.0 6.0 0.00 0.00 0.00 46 1014.6
20260903033836 90 196 2.0 2.0 0.00 0.00 0.00 46 1014.7
20260903033331 90 184 3.0 3.0 0.00 0.00 0.00 46 1014.8
20260903032831 90 237 1.0 3.0 0.00 0.00 0.00 46 1014.8
20260903032327 90 138 1.0 3.0 0.00 0.00 0.00 45 1014.7
20260903031822 90 130 2.0 7.0 0.00 0.00 0.00 45 1014.4
20260903031321 90 131 1.0 2.0 0.00 0.00 0.00 44 1014.6
20260903030817 90 57 1.0 2.0 0.00 0.00 0.00 44 1014.8
20260903030313 90 135 0.0 6.0 0.00 0.00 0.00 44 1014.6
20260903025808 90 211 1.0 6.0 0.00 0.00 0.00 44 1014.7
20260903025306 90 140 0.0 0.0 0.00 0.00 0.00 44 1014.4
20260903024758 91 140 1.0 2.0 0.00 0.00 0.00 44 1014.4
20260903024258 91 161 1.0 1.0 0.00 0.00 0.00 43 1014.6
20260903023753 91 152 0.0 1.0 0.00 0.00 0.00 43 1014.4
20260903023249 91 144 0.0 1.0 0.00 0.00 0.00 43 1014.2
20260903022748 91 178 2.0 2.0 0.00 0.00 0.00 43 1014.3
20260903022247 91 128 1.0 1.0 0.00 0.00 0.00 43 1014.2
20260903021748 92 283 1.0 3.0 0.00 0.00 0.00 43 1014.3
20260903021243 92 130 1.0 2.0 0.00 0.00 0.00 43 1014.0
20260903020742 92 140 0.0 1.0 0.00 0.00 0.00 43 1014.0
20260903020237 92 71 1.0 3.0 0.00 0.00 0.00 43 1013.9
20260903015733 92 170 1.0 3.0 0.00 0.00 0.00 43 1014.0
20260903015228 92 141 0.0 1.0 0.00 0.00 0.00 43 1013.9
20260903014723 92 110 0.0 1.0 0.00 0.00 0.00 43 1013.8
20260903014222 93 134 0.0 1.0 0.00 0.00 0.00 42 1013.7
20260903013717 93 155 0.0 1.0 0.00 0.00 0.00 42 1013.7
20260903013217 93 144 0.0 0.0 0.00 0.00 0.00 42 1013.5
20260903012715 93 145 1.0 3.0 0.00 0.00 0.00 41 1013.6
20260903012210 94 154 0.0 2.0 0.00 0.00 0.00 41 1013.4
20260903011710 94 178 0.0 1.0 0.00 0.00 0.00 40 1013.7
20260903011204 94 150 0.0 2.0 0.00 0.00 0.00 40 1013.4
20260903010659 94 141 0.0 2.0 0.00 0.00 0.00 40 1013.4
20260903010159 95 91 0.0 1.0 0.00 0.00 0.00 40 1013.5
20260903005653 95 139 0.0 1.0 0.00 0.00 0.00 39 1013.2
20260903005148 95 209 2.0 4.0 0.00 0.00 0.00 38 1013.2
20260903004643 96 130 0.0 3.0 0.00 0.00 0.00 38 1013.2
20260903004138 96 150 0.0 7.0 0.00 0.00 0.00 37 1013.2
20260903003634 96 210 0.0 3.0 0.00 0.00 0.00 38 1013.2
20260903003129 97 216 4.0 6.0 0.00 0.00 0.00 37 1013.4
20260903002624 97 198 5.0 7.0 0.00 0.00 0.00 37 1013.3
20260903002118 98 192 1.0 2.0 0.00 0.00 0.00 35 1013.2
20260903001613 98 137 0.0 2.0 0.00 0.00 0.00 35 1013.2
20260903001112 99 86 0.0 3.0 0.00 0.00 0.00 35 1013.2
20260903000609 98 181 3.0 4.0 0.00 0.00 0.00 35 1013.1
20260903000108 98 177 4.0 11.0 0.00 0.00 0.00 36 1013.2
20260902235606 99 206 2.0 2.0 0.00 0.00 0.00 35 1013.2
20260902235102 99 187 5.0 7.0 0.00 0.00 0.00 35 1013.1
20260902234556 99 165 1.0 6.0 0.00 0.00 0.00 34 1013.3
20260902234054 100 258 2.0 4.0 0.00 0.00 0.00 34 1013.3
20260902233549 100 193 0.0 2.0 0.00 0.00 0.00 34 1013.1
20260902233044 100 183 4.0 6.0 0.00 0.00 0.00 34 1013.2
20260902232543 100 182 1.0 3.0 0.00 0.00 0.00 34 1013.2
20260902232037 100 219 0.0 4.0 0.00 0.00 0.00 33 1013.3
20260902231532 100 188 6.0 8.0 0.00 0.00 0.00 33 1013.4
20260902231027 101 0 1.0 6.0 0.00 0.00 0.00 33 1013.0
20260902230527 101 238 3.0 4.0 0.00 0.00 0.00 33 1013.2
20260902230021 101 194 1.0 3.0 0.00 0.00 0.00 33 1013.2
20260902225516 101 74 2.0 3.0 0.00 0.00 0.00 33 1013.3
20260902225010 101 242 2.0 2.0 0.00 0.00 0.00 32 1013.3
20260902224509 100 147 2.0 4.0 0.00 0.00 0.00 33 1013.4
20260902224005 101 220 5.0 9.0 0.00 0.00 0.00 33 1013.4
20260902223500 102 21 1.0 2.0 0.00 0.00 0.00 33 1013.5
20260902222954 100 248 1.0 3.0 0.00 0.00 0.00 33 1013.3
20260902222453 100 167 1.0 3.0 0.00 0.00 0.00 33 1013.7
20260902221947 101 200 1.0 3.0 0.00 0.00 0.00 32 1013.6
20260902221445 102 203 2.0 4.0 0.00 0.00 0.00 31 1013.5
20260902220941 102 139 1.0 3.0 0.00 0.00 0.00 32 1013.6
20260902220441 102 198 6.0 7.0 0.00 0.00 0.00 32 1013.7
20260902215936 101 158 1.0 9.0 0.00 0.00 0.00 34 1013.6
20260902215432 100 200 4.0 4.0 0.00 0.00 0.00 33 1013.6
20260902214928 101 51 2.0 3.0 0.00 0.00 0.00 33 1013.7
20260902214426 100 214 3.0 6.0 0.00 0.00 0.00 34 1013.8
20260902213921 99 137 0.0 3.0 0.00 0.00 0.00 36 1013.7
20260902213417 101 196 3.0 8.0 0.00 0.00 0.00 34 1013.9
20260902212910 100 96 1.0 7.0 0.00 0.00 0.00 35 1013.9
20260902212406 102 151 1.0 4.0 0.00 0.00 0.00 33 1013.9
20260902211902 102 108 1.0 6.0 0.00 0.00 0.00 34 1013.9
20260902211357 101 140 2.0 4.0 0.00 0.00 0.00 35 1014.1
20260902210847 102 72 2.0 2.0 0.00 0.00 0.00 34 1013.9
20260902210346 102 274 1.0 6.0 0.00 0.00 0.00 33 1014.2
20260902205845 102 122 2.0 7.0 0.00 0.00 0.00 34 1014.1
20260902205339 101 174 0.0 7.0 0.00 0.00 0.00 34 1014.3
20260902204835 101 224 0.0 3.0 0.00 0.00 0.00 35 1014.4
20260902204330 102 206 2.0 6.0 0.00 0.00 0.00 35 1014.7
20260902203825 104 201 6.0 11.0 0.00 0.00 0.00 34 1014.7
20260902203320 102 322 0.0 4.0 0.00 0.00 0.00 33 1014.7
20260902202820 102 207 3.0 8.0 0.00 0.00 0.00 35 1014.7
20260902202316 104 126 2.0 6.0 0.00 0.00 0.00 33 1014.9
20260902201812 103 297 0.0 2.0 0.00 0.00 0.00 33 1014.8
20260902201307 103 173 1.0 3.0 0.00 0.00 0.00 35 1014.9
20260902200803 103 208 2.0 6.0 0.00 0.00 0.00 35 1015.2
20260902200257 103 160 6.0 9.0 0.00 0.00 0.00 34 1015.0
20260902195753 102 211 2.0 4.0 0.00 0.00 0.00 35 1015.2
20260902195252 100 262 7.0 9.0 0.00 0.00 0.00 36 1015.3
20260902194751 102 174 7.0 14.0 0.00 0.00 0.00 36 1015.4
20260902194247 101 140 2.0 8.0 0.00 0.00 0.00 35 1015.1
20260902193742 102 30 1.0 3.0 0.00 0.00 0.00 35 1015.5
20260902193238 102 227 5.0 7.0 0.00 0.00 0.00 34 1015.4
20260902192736 102 62 3.0 4.0 0.00 0.00 0.00 36 1015.5
20260902192235 103 153 3.0 4.0 0.00 0.00 0.00 36 1015.6
20260902191730 102 10 2.0 4.0 0.00 0.00 0.00 36 1015.6
20260902191225 101 178 4.0 9.0 0.00 0.00 0.00 37 1015.7
20260902190720 100 177 4.0 8.0 0.00 0.00 0.00 37 1015.8
20260902190220 100 157 4.0 10.0 0.00 0.00 0.00 37 1015.8
20260902185716 100 175 5.0 6.0 0.00 0.00 0.00 37 1015.9
20260902185212 100 205 3.0 8.0 0.00 0.00 0.00 37 1016.0
20260902184707 99 189 2.0 7.0 0.00 0.00 0.00 38 1016.0
20260902184203 100 137 6.0 10.0 0.00 0.00 0.00 37 1016.1
20260902183658 100 201 4.0 4.0 0.00 0.00 0.00 37 1016.3
20260902183155 99 114 0.0 4.0 0.00 0.00 0.00 37 1016.5
20260902182650 99 243 2.0 8.0 0.00 0.00 0.00 37 1016.4
20260902182147 100 174 5.0 7.0 0.00 0.00 0.00 37 1016.5
20260902181642 100 176 4.0 10.0 0.00 0.00 0.00 38 1016.8
20260902181141 98 28 2.0 3.0 0.00 0.00 0.00 38 1016.8
20260902180636 100 313 2.0 9.0 0.00 0.00 0.00 38 1016.8
20260902180132 100 158 2.0 2.0 0.00 0.00 0.00 37 1016.9
20260902175631 99 207 11.0 13.0 0.00 0.00 0.00 39 1017.1
20260902175127 98 59 2.0 6.0 0.00 0.00 0.00 39 1017.1
20260902174623 98 177 2.0 3.0 0.00 0.00 0.00 38 1017.2
20260902174119 100 337 1.0 9.0 0.00 0.00 0.00 38 1017.3
20260902173614 100 105 1.0 2.0 0.00 0.00 0.00 38 1017.1
20260902173109 97 186 1.0 2.0 0.00 0.00 0.00 40 1017.4
20260902172603 98 172 6.0 9.0 0.00 0.00 0.00 40 1017.2
20260902172103 98 238 3.0 7.0 0.00 0.00 0.00 40 1017.4
20260902171558 97 206 4.0 7.0 0.00 0.00 0.00 42 1017.5
20260902171054 98 212 4.0 4.0 0.00 0.00 0.00 41 1017.5
20260902170549 96 190 1.0 6.0 0.00 0.00 0.00 43 1017.7
20260902170046 96 196 4.0 4.0 0.00 0.00 0.00 42 1017.7
20260902165545 96 169 1.0 6.0 0.00 0.00 0.00 42 1017.7
20260902165040 96 199 3.0 7.0 0.00 0.00 0.00 43 1017.8
20260902164535 95 213 3.0 8.0 0.00 0.00 0.00 44 1017.8
20260902164034 96 190 4.0 7.0 0.00 0.00 0.00 43 1018.1
20260902163530 95 195 3.0 8.0 0.00 0.00 0.00 45 1018.0
20260902163027 94 221 6.0 8.0 0.00 0.00 0.00 45 1018.1
20260902162522 94 198 6.0 10.0 0.00 0.00 0.00 45 1017.9
20260902162017 95 213 5.0 10.0 0.00 0.00 0.00 46 1018.1
20260902161512 94 232 2.0 6.0 0.00 0.00 0.00 46 1018.1
20260902161008 93 177 3.0 8.0 0.00 0.00 0.00 47 1018.0
20260902160504 93 251 5.0 10.0 0.00 0.00 0.00 48 1017.9
20260902160005 93 187 4.0 6.0 0.00 0.00 0.00 47 1017.9
20260902155456 92 168 5.0 13.0 0.00 0.00 0.00 48 1018.0
20260902154950 92 248 4.0 8.0 0.00 0.00 0.00 49 1018.1
20260902154445 92 219 4.0 6.0 0.00 0.00 0.00 49 1018.1
20260902153940 91 224 7.0 8.0 0.00 0.00 0.00 50 1018.1
20260902153438 90 200 2.0 9.0 0.00 0.00 0.00 51 1018.1
20260902152934 90 199 6.0 11.0 0.00 0.00 0.00 51 1018.3
20260902152429 89 137 2.0 7.0 0.00 0.00 0.00 51 1018.1
20260902151925 89 160 6.0 11.0 0.00 0.00 0.00 52 1018.1
20260902151421 88 179 4.0 9.0 0.00 0.00 0.00 53 1018.3
20260902150915 88 170 9.0 11.0 0.00 0.00 0.00 53 1018.3
20260902150411 87 190 9.0 11.0 0.00 0.00 0.00 54 1018.3
20260902145910 87 185 4.0 10.0 0.00 0.00 0.00 55 1018.1
20260902145406 87 196 4.0 8.0 0.00 0.00 0.00 55 1018.2
20260902144900 87 209 2.0 7.0 0.00 0.00 0.00 55 1018.3
20260902144357 87 219 6.0 8.0 0.00 0.00 0.00 55 1018.1
20260902143851 87 178 3.0 6.0 0.00 0.00 0.00 55 1018.3
20260902143346 86 207 1.0 6.0 0.00 0.00 0.00 56 1018.2
20260902142842 86 168 6.0 9.0 0.00 0.00 0.00 57 1018.3
20260902142338 86 173 6.0 11.0 0.00 0.00 0.00 57 1018.2
20260902141832 86 202 4.0 11.0 0.00 0.00 0.00 58 1018.0
20260902141328 86 242 4.0 8.0 0.00 0.00 0.00 57 1018.2
20260902140827 85 160 4.0 11.0 0.00 0.00 0.00 58 1018.3
20260902140323 85 201 7.0 14.0 0.00 0.00 0.00 59 1018.1
20260902135822 85 201 4.0 10.0 0.00 0.00 0.00 59 1018.1
20260902135318 85 178 4.0 8.0 0.00 0.00 0.00 59 1018.3
20260902134817 85 209 4.0 8.0 0.00 0.00 0.00 59 1018.0
20260902134312 84 192 7.0 10.0 0.00 0.00 0.00 60 1018.0
20260902133807 84 165 5.0 9.0 0.00 0.00 0.00 60 1018.0
20260902133302 84 166 7.0 11.0 0.00 0.00 0.00 60 1018.0
20260902132757 84 162 4.0 8.0 0.00 0.00 0.00 61 1018.0
20260902132252 83 212 5.0 8.0 0.00 0.00 0.00 61 1018.3
20260902131748 83 171 5.0 8.0 0.00 0.00 0.00 62 1018.0
20260902131244 83 210 5.0 7.0 0.00 0.00 0.00 62 1018.1
20260902130744 83 178 5.0 9.0 0.00 0.00 0.00 62 1017.9
20260902130240 83 184 4.0 8.0 0.00 0.00 0.00 62 1018.1
20260902125734 83 175 6.0 7.0 0.00 0.00 0.00 62 1018.0
20260902125231 82 222 4.0 6.0 0.00 0.00 0.00 63 1018.2